Regional Weather Roundup
Issued by NWS

Home | Current Version | Previous Version | Text Only | Print | Product List | Glossary Off
Versions: 1 2 3 4 5 6 7 8 9 10 11 12 13 14 15 16 17 18 19 20 21 22 23 24 25 26 27 28 29 30 31 32 33 34 35 36 37 38 39 40 41 42 43 44 45 46 47 48 49 50

000
ASUS43 KIND 181659
RWRIN

WEATHER ROUNDUP FOR INDIANA
NATIONAL WEATHER SERVICE INDIANAPOLIS IN
100 PM EDT SAT APR 18 2015

NOTE: "FAIR" INDICATES FEW OR NO CLOUDS BELOW 12,000 FEET WITH NO
SIGNIFICANT WEATHER AND/OR OBSTRUCTIONS TO VISIBILITY.

* - STATION DOES NOT REPORT WEATHER SUCH AS PRECIPITATION OR FOG.

+ - STATION NOT QUALITY CONTROLLED BY THE NATIONAL WEATHER SERVICE.
    USE DATA WITH CAUTION...ESPECIALLY DEWPOINT AND RELATIVE
    HUMIDITY OBSERVATIONS.

INZ001>003-010>013-019-020-181800-
NORTHWEST INDIANA

CITY           SKY/WX    TMP DP  RH WIND       PRES   REMARKS
GARY /AIRPORT/ PTSUNNY   52  37  58 N12G23    30.10R
RENSSELAER +   PTSUNNY   73  52  46 SW5       30.05S

$$

LMZ046-743>745-181800-
SOUTHERN LAKE MICHIGAN

STATION/POSITION TIME  TEMP WIND        PRES
                       AIR  DIR/SP/G
                 (UTC) (F)  (DEG/KT/KT) (MB)
BURNS HARBOR     1600   43  340/  9/ 10 1019.3R
MICHIGAN CITY    1600   47  310/  8/  9   N/A
4NW MICH CITY    1600   42                N/A

$$

INZ004-005-014>016-021>024-181800-
NORTH CENTRAL INDIANA

CITY           SKY/WX    TMP DP  RH WIND       PRES   REMARKS
GOSHEN         SUNNY     75  52  44 NE9       30.03F
SOUTH BEND     MOSUNNY   75  48  38 N7        30.04F

$$

INZ006>009-017-018-025>027-181800-
NORTHEAST INDIANA

CITY           SKY/WX    TMP DP  RH WIND       PRES   REMARKS
ANGOLA *+      SUNNY     73  52  46 VRB7      30.04S
FORT WAYNE     CLOUDY    76  50  40 VRB5      30.05S

$$

INZ028-029-035-036-043>045-051>053-181800-
WEST CENTRAL INDIANA

CITY           SKY/WX    TMP DP  RH WIND       PRES   REMARKS
CRAWFORDSVL +  CLOUDY    72  37  27 E7        30.05F
GREENCASTLE +  PTSUNNY   72  41  33 E8        30.05F
LAFAYETTE      CLOUDY    74  46  36 CALM      30.04F
TERRE HAUTE    PTSUNNY   75  48  38 SE5       30.04S

$$

INZ030>032-037>040-046>048-054>057-064-065-181800-
CENTRAL INDIANA

CITY           SKY/WX    TMP DP  RH WIND       PRES   REMARKS
ANDERSON       SUNNY     73  41  31 VRB3      30.07R
INDIANAPOLIS   CLOUDY    73  45  36 VRB5      30.04F
-EAGLE CREEK   CLOUDY    73  44  35 VRB3      30.05F
KOKOMO *+      CLOUDY    77  48  36 S5        30.05S
MT COMFORT *+  CLOUDY    73  23  15 CALM      30.07S
SHELBYVILLE    CLOUDY    78  46  32 E7G20     30.04F

$$

INZ033-034-041-042-049-050-058-059-181800-
EAST CENTRAL INDIANA

CITY           SKY/WX    TMP DP  RH WIND       PRES   REMARKS
MUNCIE         PTSUNNY   75  45  34 CALM      30.06R

$$

INZ060-061-067>069-081>083-085>088-181800-
SOUTHWEST INDIANA

CITY           SKY/WX    TMP DP  RH WIND       PRES   REMARKS
EVANSVILLE     CLOUDY    76  58  53 VRB5      30.02F
HUNTINGBURG *+ CLOUDY    75  54  46 E7        30.02S

$$

INZ062-063-066-070>080-084-089>092-181800-
SOUTH CENTRAL AND SOUTHEAST INDIANA

CITY           SKY/WX    TMP DP  RH WIND       PRES   REMARKS
BLOOMINGTON    PTSUNNY   76  43  30 VRB3      30.04F
MADISON *+     MOSUNNY   75  34  22 E7        30.06F

$$




USA.gov is the U.S. government's official web portal to all federal, state and local government web resources and services.